National Oceanic Atmosphere Administration National Weather Service Headquarters National Weather Service Headquarters
NOAA logo WFO Anchorage Scalable transition graphic NWS logo
Transition from title bar to navgation bar   Aviation Weather 14 AKST 
blankspace Home   |   Mobile   |   Social Media   |   Mesonet   |   Surface Map   |   Radar   |   Submit Storm Reports   |   News =23 GMT 

LocalForecast by City, St or Zip Code

spacer

Forecasts/Products
  Public
  Forecast Discussion
    - With Glossary
  Aviation
  Marine
  Hydrology(RFC)
  Rivers & Lakes AHPS
  Ice Desk
  TV Weather
  Fire Weather
  Avalanche
  Travel 511
  Graphical
  xml logo RSS Feeds
  Marine FTPMail

spacer

Data
  Mesonet
  Model Graphics
  Local Model
  Observations
  Marine Obs
  Satellite/Radar
  Vent Factor
  Soaring Index
  Weather Links

spacer

Climate
  PAFC Climate
  Interactive Climate
  PAFC Records
  Local
  National
  More

spacer

Outreach
  About Us
  Community Outreach
  Kids' Page
  Tour/Speaker Request
  Weather Classroom
  Social Media

spacer

Reports
  COOP Observers
  Local Storm Reports
  Spotter Page
  Submit a Storm Report

spacer

Miscellaneous
  Archived Alaska Weather Stories
  Student Career Opportunities
  Research Papers

spacer

Print Friendly/
Low Bandwidth

  Public Forecasts
  Marine Forecasts

spacer

Contact Us
  mailto pafcweb

spacer

Facebook Follow the National Weather Service in Alaska on Twitter
USA.gov is the U.S. government's official web portal to all federal, state and local government web resources and services.


 ICAO ID:   AAWU Graphics

Internet access to TAFs and METAR observations is for planning purposes only. We can not guarantee the timeliness of internet products. Before flying please get a formal pilot briefing (1-800-992-7433) and ALWAYS file a Flight Plan!Pilot briefings are provided to licensed aircraft pilots, ONLY! Others may not use the above number to obtain weather information.

Check out the Key to TAFs and METARs for help with decoding the information.

A 12 hour summary of TAFs can be found here.

PABI TAF
PABI 2004/ VRB06KT 9999 FEW180 QNH2945INS

 
      BECMG 1905/1906 11009KT 9999 FEW180 QNH2939INS
      BECMG 1911/1912 12015G25KT 9999 FEW180 510002 QNH2940INS
      TXM13/1921Z TNM21/1822Z=
TAF AMD PAFB 1822/2002 VRB03KT 0400 FZFG OVC003 620033 QNH2960INS
      TEMPO 1902/1904 2400 BR OVC004 620043
      BECMG 1911/1912 VRB03KT 9999 NSW BKN015 620152 QNH2956INS
      TXM07/1822Z TNM19/1915Z AMD 182200=


METAR PABI 182253Z 00000KT 10SM FEW200 M19/M22 A2959 RMK AO2 SLP073
     T11891217=
METAR PABI 182153Z 00000KT 10SM FEW002 FEW200 M19/M22 A2960 RMK
     AO2 SLP077 FG BNK VC NE-E T11941222=
METAR PABI 182153Z 00000KT 10SM FEW002 FEW200 M19/M22 A2960=
SPECI PABI 182151Z 00000KT 10SM FEW002 FEW200 M19/M22 A2960 RMK AO2
 FG BNK VC NE-E=
PABI 182151Z 00000KT 10SM FEW002 FEW200 M19/M22 A2960=
SPECI PABI 182125Z COR 00000KT 6SM HZ FEW002 M20/M23 A2961 RMK AO2
 T12001228 $=
PABI 182125Z COR 00000KT 6SM HZ FEW002 M20/M23 A2961=
METAR PABI 182053Z 00000KT 10SM CLR M21/M23 A2962=
METAR PABI 181953Z 14003KT 10SM FEW200 M21/M23 A2962 RMK AO2 SLP084
     T12061233 $=
METAR PABI 181953Z 14003KT 10SM FEW200 M21/M23 A2962=


National Weather Service
Anchorage Forecast Office
6930 Sand Lake Road
Anchorage, Ak 99502
(907) 266-5105 M-F/7-5pm
About Us
Career Opportunities
Glossary
Disclaimer
Privacy Policy
Credits
Alaska Weather Information Line:
1-800-472-0391